| time (UTC) | temp F | wind direction | speed knots | gust knots | rain 1hr in | rain 24hr in | rain mn in | humidity % | barometer mb |
| 20260507200012 | 68 | 148 | 3.5 | 11.3 | 0.00 | 0.00 | 0.00 | 75 | 1014.2 |
| 20260507194555 | 67 | 154 | 6.1 | 9.6 | 0.00 | 0.00 | 0.00 | 76 | 1014.1 |
| 20260507193012 | 66 | 132 | 5.2 | 12.2 | 0.00 | 0.00 | 0.00 | 76 | 1013.6 |
| 20260507191522 | 66 | 161 | 5.2 | 10.4 | 0.00 | 0.00 | 0.00 | 77 | 1014.4 |
| 20260507190046 | 66 | 154 | 6.1 | 10.4 | 0.00 | 0.00 | 0.00 | 77 | 1014.6 |
| 20260507184557 | 65 | 189 | 4.3 | 9.6 | 0.00 | 0.00 | 0.00 | 78 | 1015.0 |
| 20260507183018 | 65 | 179 | 5.2 | 9.6 | 0.00 | 0.00 | 0.00 | 79 | 1015.6 |
| 20260507181546 | 65 | 153 | 3.5 | 9.6 | 0.00 | 0.00 | 0.00 | 78 | 1016.0 |
| 20260507180006 | 65 | 158 | 4.3 | 9.6 | 0.00 | 0.00 | 0.00 | 78 | 1015.5 |
| 20260507174522 | 64 | 166 | 4.3 | 11.3 | 0.00 | 0.00 | 0.00 | 80 | 1015.7 |
| 20260507173110 | 63 | 164 | 6.1 | 9.6 | 0.00 | 0.00 | 0.00 | 81 | 1016.0 |
| 20260507171511 | 62 | 120 | 6.1 | 11.3 | 0.00 | 0.00 | 0.00 | 82 | 1015.9 |
| 20260507170040 | 61 | 161 | 5.2 | 12.2 | 0.00 | 0.00 | 0.00 | 83 | 1016.6 |
| 20260507164551 | 61 | 134 | 5.2 | 11.3 | 0.00 | 0.00 | 0.00 | 83 | 1016.4 |
| 20260507163002 | 61 | 177 | 5.2 | 12.2 | 0.00 | 0.00 | 0.00 | 83 | 1016.3 |
| 20260507161519 | 61 | 146 | 4.3 | 13.9 | 0.00 | 0.00 | 0.00 | 83 | 1016.2 |
| 20260507160035 | 61 | 165 | 4.3 | 14.8 | 0.00 | 0.00 | 0.00 | 84 | 1016.1 |
| 20260507154547 | 61 | 171 | 6.1 | 15.6 | 0.00 | 0.00 | 0.00 | 84 | 1016.0 |
| 20260507153101 | 61 | 172 | 7.0 | 16.5 | 0.00 | 0.00 | 0.00 | 84 | 1015.8 |
| 20260507151527 | 62 | 162 | 6.1 | 14.8 | 0.00 | 0.00 | 0.00 | 83 | 1015.6 |
| 20260507150056 | 61 | 174 | 6.1 | 12.2 | 0.00 | 0.00 | 0.00 | 84 | 1015.3 |
| 20260507144526 | 60 | 126 | 6.1 | 13.0 | 0.00 | 0.00 | 0.00 | 85 | 1015.6 |
| 20260507143101 | 60 | 148 | 7.8 | 14.8 | 0.00 | 0.00 | 0.00 | 85 | 1015.5 |
| 20260507141537 | 60 | 174 | 6.1 | 14.8 | 0.00 | 0.00 | 0.00 | 86 | 1015.3 |
| 20260507140043 | 60 | 181 | 3.5 | 11.3 | 0.00 | 0.00 | 0.00 | 86 | 1015.3 |
| 20260507134557 | 60 | 186 | 6.1 | 11.3 | 0.00 | 0.00 | 0.00 | 85 | 1015.3 |
| 20260507133018 | 60 | 166 | 7.0 | 14.8 | 0.00 | 0.00 | 0.00 | 85 | 1015.3 |
| 20260507131527 | 61 | 172 | 3.5 | 13.0 | 0.00 | 0.00 | 0.00 | 85 | 1015.2 |
| 20260507130108 | 61 | 160 | 4.3 | 10.4 | 0.00 | 0.00 | 0.00 | 84 | 1015.0 |
| 20260507124530 | 61 | 160 | 4.3 | 13.0 | 0.00 | 0.00 | 0.00 | 83 | 1015.0 |
| 20260507123039 | 61 | 201 | 4.3 | 12.2 | 0.00 | 0.00 | 0.00 | 83 | 1014.7 |
| 20260507121502 | 61 | 185 | 5.2 | 13.9 | 0.00 | 0.00 | 0.00 | 82 | 1014.8 |
| 20260507120034 | 62 | 165 | 4.3 | 8.7 | 0.00 | 0.00 | 0.00 | 82 | 1014.7 |
| 20260507114600 | 62 | 168 | 4.3 | 9.6 | 0.00 | 0.00 | 0.00 | 82 | 1013.8 |
| 20260507113104 | 62 | 177 | 3.5 | 8.7 | 0.00 | 0.00 | 0.00 | 82 | 1013.4 |
| 20260507111529 | 62 | 181 | 2.6 | 10.4 | 0.00 | 0.00 | 0.00 | 82 | 1013.5 |
| 20260507110045 | 62 | 147 | 3.5 | 9.6 | 0.00 | 0.00 | 0.00 | 82 | 1013.5 |
| 20260507104559 | 62 | 213 | 4.3 | 11.3 | 0.00 | 0.00 | 0.00 | 82 | 1013.0 |
| 20260507103012 | 62 | 162 | 3.5 | 8.7 | 0.00 | 0.00 | 0.00 | 82 | 1013.0 |
| 20260507101552 | 62 | 120 | 3.5 | 9.6 | 0.00 | 0.00 | 0.00 | 82 | 1013.1 |
| 20260507100024 | 62 | 131 | 2.6 | 7.8 | 0.00 | 0.00 | 0.00 | 82 | 1013.1 |
| 20260507094600 | 62 | 191 | 3.5 | 9.6 | 0.00 | 0.00 | 0.00 | 82 | 1012.9 |
| 20260507093022 | 62 | 311 | 3.5 | 10.4 | 0.00 | 0.00 | 0.00 | 81 | 1012.9 |
| 20260507091538 | 62 | 164 | 5.2 | 11.3 | 0.00 | 0.00 | 0.00 | 81 | 1013.1 |
| 20260507090105 | 62 | 177 | 3.5 | 7.8 | 0.00 | 0.00 | 0.00 | 82 | 1013.1 |
| 20260507084522 | 62 | 143 | 4.3 | 8.7 | 0.00 | 0.00 | 0.00 | 82 | 1013.0 |
| 20260507083039 | 63 | 133 | 3.5 | 7.0 | 0.00 | 0.00 | 0.00 | 82 | 1013.0 |
| 20260507081551 | 63 | 145 | 4.3 | 8.7 | 0.00 | 0.00 | 0.00 | 82 | 1012.8 |
| 20260507080004 | 63 | 175 | 3.5 | 8.7 | 0.00 | 0.00 | 0.00 | 82 | 1013.0 |
| 20260507074517 | 63 | 177 | 2.6 | 7.8 | 0.00 | 0.00 | 0.00 | 82 | 1013.0 |
| 20260507073047 | 63 | 182 | 2.6 | 11.3 | 0.00 | 0.00 | 0.00 | 82 | 1013.2 |
| 20260507071512 | 63 | 179 | 3.5 | 9.6 | 0.00 | 0.00 | 0.00 | 82 | 1013.0 |
| 20260507070140 | 63 | 150 | 4.3 | 9.6 | 0.00 | 0.00 | 0.00 | 82 | 1013.2 |
| 20260507064600 | 64 | 180 | 5.2 | 8.7 | 0.00 | 0.00 | 0.00 | 82 | 1013.1 |
| 20260507063019 | 63 | 174 | 2.6 | 7.0 | 0.00 | 0.00 | 0.00 | 82 | 1013.0 |
| 20260507061546 | 64 | 178 | 4.3 | 8.7 | 0.00 | 0.00 | 0.00 | 82 | 1012.9 |
| 20260507060002 | 64 | 150 | 4.3 | 9.6 | 0.00 | 0.00 | 0.00 | 82 | 1013.0 |
| 20260507054519 | 63 | 169 | 4.3 | 9.6 | 0.00 | 0.00 | 0.00 | 82 | 1012.3 |
| 20260507053033 | 64 | 172 | 4.3 | 10.4 | 0.00 | 0.00 | 0.00 | 82 | 1012.5 |
| 20260507051549 | 64 | 192 | 6.1 | 12.2 | 0.00 | 0.00 | 0.00 | 82 | 1012.6 |
| 20260507050010 | 64 | 161 | 3.5 | 11.3 | 0.00 | 0.00 | 0.00 | 82 | 1012.8 |
| 20260507044537 | 64 | 165 | 3.5 | 9.6 | 0.00 | 0.00 | 0.00 | 82 | 1012.8 |
| 20260507043105 | 64 | 152 | 3.5 | 8.7 | 0.00 | 0.00 | 0.00 | 83 | 1012.5 |
| 20260507041517 | 64 | 184 | 4.3 | 7.8 | 0.00 | 0.00 | 0.00 | 82 | 1012.1 |
| 20260507040037 | 64 | 115 | 4.3 | 8.7 | 0.00 | 0.00 | 0.00 | 82 | 1011.8 |
| 20260507034547 | 64 | 146 | 4.3 | 9.6 | 0.00 | 0.00 | 0.00 | 82 | 1011.8 |
| 20260507033120 | 64 | 106 | 2.6 | 8.7 | 0.00 | 0.00 | 0.00 | 82 | 1011.8 |
| 20260507031511 | 64 | 165 | 2.6 | 9.6 | 0.00 | 0.00 | 0.00 | 82 | 1011.6 |
| 20260507030101 | 64 | 193 | 4.3 | 12.2 | 0.00 | 0.00 | 0.00 | 82 | 1011.5 |
| 20260507024502 | 65 | 152 | 5.2 | 11.3 | 0.00 | 0.00 | 0.00 | 81 | 1011.2 |
| 20260507023020 | 65 | 184 | 3.5 | 8.7 | 0.00 | 0.00 | 0.00 | 81 | 1010.8 |
| 20260507021553 | 65 | 174 | 4.3 | 10.4 | 0.00 | 0.00 | 0.00 | 81 | 1010.5 |
| 20260507020009 | 66 | 154 | 5.2 | 11.3 | 0.00 | 0.00 | 0.00 | 80 | 1010.5 |
| 20260507014523 | 66 | 169 | 4.3 | 11.3 | 0.00 | 0.00 | 0.00 | 79 | 1010.1 |
| 20260507013055 | 67 | 167 | 5.2 | 15.6 | 0.00 | 0.00 | 0.00 | 78 | 1009.7 |
| 20260507011528 | 68 | 223 | 3.5 | 10.4 | 0.00 | 0.00 | 0.00 | 78 | 1009.9 |
| 20260507010042 | 69 | 162 | 4.3 | 12.2 | 0.00 | 0.00 | 0.00 | 77 | 1009.4 |
| 20260507004553 | 70 | 163 | 4.3 | 11.3 | 0.00 | 0.00 | 0.00 | 77 | 1009.1 |
| 20260507003104 | 71 | 174 | 3.5 | 13.0 | 0.00 | 0.00 | 0.00 | 76 | 1008.9 |
| 20260507001515 | 72 | 141 | 5.2 | 13.9 | 0.00 | 0.00 | 0.00 | 75 | 1008.7 |
| 20260507000029 | 73 | 156 | 4.3 | 14.8 | 0.00 | 0.00 | 0.00 | 75 | 1008.2 |
| 20260506234608 | 75 | 184 | 5.2 | 14.8 | 0.00 | 0.00 | 0.00 | 74 | 1008.2 |
| 20260506233020 | 76 | 146 | 5.2 | 13.9 | 0.00 | 0.00 | 0.00 | 74 | 1007.9 |
| 20260506231537 | 77 | 176 | 6.1 | 15.6 | 0.00 | 0.00 | 0.00 | 73 | 1007.7 |
| 20260506224507 | 81 | 156 | 4.3 | 9.6 | 0.00 | 0.00 | 0.00 | 74 | 1007.3 |
| 20260506223026 | 81 | 196 | 4.3 | 8.7 | 0.00 | 0.00 | 0.00 | 74 | 1007.0 |
| 20260506221542 | 82 | 178 | 3.5 | 8.7 | 0.00 | 0.00 | 0.00 | 75 | 1006.9 |
| 20260506220104 | 83 | 194 | 3.5 | 8.7 | 0.00 | 0.00 | 0.00 | 74 | 1006.9 |
| 20260506214522 | 83 | 149 | 4.3 | 10.4 | 0.00 | 0.00 | 0.00 | 74 | 1006.9 |
| 20260506213039 | 84 | 153 | 3.5 | 6.1 | 0.00 | 0.00 | 0.00 | 73 | 1006.7 |
| 20260506211608 | 84 | 137 | 0.9 | 4.3 | 0.00 | 0.00 | 0.00 | 69 | 1006.8 |
| 20260506210034 | 84 | 169 | 1.7 | 5.2 | 0.00 | 0.00 | 0.00 | 71 | 1007.0 |
| 20260506204549 | 84 | 124 | 2.6 | 6.1 | 0.00 | 0.00 | 0.00 | 69 | 1007.1 |
| 20260506203005 | 85 | 140 | 0.9 | 2.6 | 0.00 | 0.00 | 0.00 | 70 | 1007.3 |
| 20260506201520 | 85 | 176 | 1.7 | 4.3 | 0.00 | 0.00 | 0.00 | 69 | 1007.2 |